TimeCST,TemperatureF,Dew PointF,Humidity,Sea Level PressureIn,VisibilityMPH,Wind Direction,Wind SpeedMPH,Gust SpeedMPH,PrecipitationIn,Events,Conditions,WindDirDegrees,DateUTC
12:15 AM,55.4,53.2,92,29.83,7.0,SW,10.4,-,N/A,,Scattered Clouds,220,2012-12-02 06:15:00
12:35 AM,55.4,53.2,92,29.83,5.0,SW,5.8,-,N/A,,Clear,220,2012-12-02 06:35:00
12:55 AM,55.4,53.6,94,29.83,5.0,SW,5.8,-,N/A,,Mostly Cloudy,230,2012-12-02 06:55:00
1:15 AM,55.2,53.1,92,29.83,5.0,WSW,4.6,-,N/A,,Overcast,250,2012-12-02 07:15:00
1:35 AM,54.5,52.7,94,29.83,4.0,West,3.5,-,N/A,,Overcast,270,2012-12-02 07:35:00
1:55 AM,54.7,53.1,94,29.84,4.0,Calm,Calm,-,N/A,,Overcast,0,2012-12-02 07:55:00
2:15 AM,54.5,52.7,94,29.84,4.0,Calm,Calm,-,N/A,,Overcast,0,2012-12-02 08:15:00
2:35 AM,54.1,52.7,95,29.85,4.0,WSW,4.6,-,N/A,,Overcast,250,2012-12-02 08:35:00
2:55 AM,54.5,52.7,94,29.85,4.0,WSW,3.5,-,N/A,,Overcast,250,2012-12-02 08:55:00
3:15 AM,54.5,52.9,94,29.85,4.0,Calm,Calm,-,N/A,,Overcast,0,2012-12-02 09:15:00
3:35 AM,54.9,53.2,94,29.85,4.0,WSW,4.6,-,N/A,,Overcast,240,2012-12-02 09:35:00
3:55 AM,54.7,53.1,94,29.85,3.0,WSW,5.8,-,N/A,,Overcast,240,2012-12-02 09:55:00
4:15 AM,54.5,53.1,95,29.85,3.0,West,3.5,-,N/A,,Overcast,270,2012-12-02 10:15:00
4:35 AM,54.5,53.1,95,29.86,2.5,WNW,3.5,-,N/A,,Overcast,290,2012-12-02 10:35:00
4:55 AM,54.5,52.5,93,29.86,5.0,West,9.2,-,N/A,,Overcast,270,2012-12-02 10:55:00
5:15 AM,54.5,51.8,91,29.87,5.0,WNW,8.1,-,N/A,,Overcast,290,2012-12-02 11:15:00
5:35 AM,54.1,51.8,92,29.88,5.0,WNW,8.1,-,N/A,,Overcast,290,2012-12-02 11:35:00
5:55 AM,53.8,50.2,88,29.89,5.0,WNW,6.9,-,N/A,,Overcast,290,2012-12-02 11:55:00
6:15 AM,52.2,48.7,88,29.90,5.0,WNW,8.1,-,N/A,,Mostly Cloudy,300,2012-12-02 12:15:00
6:35 AM,50.4,47.5,90,29.91,5.0,WNW,6.9,-,N/A,,Scattered Clouds,300,2012-12-02 12:35:00
7:15 AM,45.1,43.5,94,29.92,1.5,Calm,Calm,-,N/A,,Unknown,0,2012-12-02 13:15:00
7:35 AM,44.8,43.7,96,29.93,2.0,Calm,Calm,-,N/A,,Clear,0,2012-12-02 13:35:00
7:55 AM,46.4,45.1,95,29.93,2.5,Calm,Calm,-,N/A,,Clear,0,2012-12-02 13:55:00
8:15 AM,45.0,44.1,97,29.95,1.8,Calm,Calm,-,N/A,,Unknown,0,2012-12-02 14:15:00
8:35 AM,46.4,45.3,96,29.95,2.5,Calm,Calm,-,N/A,,Clear,0,2012-12-02 14:35:00
8:55 AM,49.3,47.7,94,29.97,3.0,NW,3.5,-,N/A,,Clear,310,2012-12-02 14:55:00
9:15 AM,50.9,47.1,87,29.97,4.0,NW,6.9,-,N/A,,Scattered Clouds,310,2012-12-02 15:15:00
9:35 AM,51.6,47.1,85,29.97,4.0,WNW,6.9,-,N/A,,Scattered Clouds,300,2012-12-02 15:35:00
10:15 AM,51.6,46.6,83,29.98,5.0,NNW,4.6,-,N/A,,Mostly Cloudy,340,2012-12-02 16:15:00
10:35 AM,52.5,47.5,83,29.98,5.0,NW,3.5,-,N/A,,Mostly Cloudy,310,2012-12-02 16:35:00
10:55 AM,52.0,46.4,81,29.99,5.0,NW,3.5,-,N/A,,Scattered Clouds,320,2012-12-02 16:55:00
11:15 AM,54.1,47.1,77,29.99,5.0,NNW,6.9,-,N/A,,Scattered Clouds,330,2012-12-02 17:15:00
11:35 AM,54.0,44.6,71,29.99,5.0,NW,4.6,-,N/A,,Scattered Clouds,320,2012-12-02 17:35:00
11:55 AM,54.5,44.1,68,29.99,5.0,Calm,Calm,-,N/A,,Scattered Clouds,0,2012-12-02 17:55:00
12:15 PM,54.9,44.4,68,29.99,7.0,Calm,Calm,-,N/A,,Scattered Clouds,0,2012-12-02 18:15:00
12:35 PM,55.6,44.1,65,29.98,7.0,NW,4.6,-,N/A,,Clear,310,2012-12-02 18:35:00
12:55 PM,55.0,43.9,66,29.98,7.0,Calm,Calm,-,N/A,,Clear,0,2012-12-02 18:55:00
1:15 PM,54.7,44.1,67,29.98,7.0,NNE,3.5,-,N/A,,Clear,20,2012-12-02 19:15:00
1:35 PM,54.7,43.9,67,29.97,7.0,Calm,Calm,-,N/A,,Clear,0,2012-12-02 19:35:00
1:55 PM,55.4,43.9,65,29.97,7.0,Calm,Calm,-,N/A,,Clear,0,2012-12-02 19:55:00
2:15 PM,55.4,43.7,65,29.98,7.0,NNW,3.5,-,N/A,,Clear,340,2012-12-02 20:15:00
2:35 PM,55.6,43.9,65,29.98,7.0,NNE,4.6,-,N/A,,Clear,20,2012-12-02 20:35:00
2:55 PM,55.8,43.3,63,29.97,7.0,Calm,Calm,-,N/A,,Clear,0,2012-12-02 20:55:00
3:15 PM,55.8,43.5,63,29.98,7.0,Calm,Calm,-,N/A,,Clear,0,2012-12-02 21:15:00
3:35 PM,55.8,43.3,63,29.98,7.0,Calm,Calm,-,N/A,,Clear,0,2012-12-02 21:35:00
3:55 PM,53.6,43.3,68,29.99,7.0,ENE,4.6,-,N/A,,Clear,60,2012-12-02 21:55:00
4:15 PM,51.4,43.3,74,29.99,7.0,East,4.6,-,N/A,,Clear,80,2012-12-02 22:15:00
4:35 PM,49.5,43.3,79,30.00,7.0,ENE,4.6,-,N/A,,Clear,70,2012-12-02 22:35:00
4:55 PM,48.2,42.4,80,30.01,7.0,East,3.5,-,N/A,,Clear,80,2012-12-02 22:55:00
5:15 PM,42.8,40.1,90,30.02,5.0,ENE,3.5,-,N/A,,Clear,60,2012-12-02 23:15:00
5:35 PM,43.7,41.9,93,30.02,5.0,Calm,Calm,-,N/A,,Clear,0,2012-12-02 23:35:00
5:55 PM,42.8,41.5,95,30.03,4.0,ENE,3.5,-,N/A,,Clear,70,2012-12-02 23:55:00
6:15 PM,42.6,41.2,95,30.03,5.0,ESE,5.8,-,N/A,,Clear,120,2012-12-03 00:15:00
6:35 PM,42.1,40.1,93,30.04,4.0,ENE,4.6,-,N/A,,Clear,70,2012-12-03 00:35:00
6:55 PM,41.5,40.1,95,30.04,3.0,East,3.5,-,N/A,,Clear,80,2012-12-03 00:55:00
7:15 PM,40.6,39.6,96,30.04,2.5,East,3.5,-,N/A,,Clear,90,2012-12-03 01:15:00
7:35 PM,40.1,39.0,96,30.03,1.8,East,4.6,-,N/A,,Unknown,100,2012-12-03 01:35:00
7:55 PM,38.7,37.8,97,30.02,1.5,SE,4.6,-,N/A,,Unknown,130,2012-12-03 01:55:00
8:15 PM,38.8,37.9,97,30.01,1.0,SE,3.5,-,N/A,,Unknown,140,2012-12-03 02:15:00
8:35 PM,40.6,39.9,97,30.01,2.0,SE,4.6,-,N/A,,Clear,130,2012-12-03 02:35:00
8:55 PM,42.1,41.2,97,30.02,3.0,SE,5.8,-,N/A,,Clear,130,2012-12-03 02:55:00
9:15 PM,42.6,41.7,97,30.02,3.0,ESE,5.8,-,N/A,,Scattered Clouds,120,2012-12-03 03:15:00
9:35 PM,42.1,41.2,97,30.02,2.5,ESE,6.9,-,N/A,,Mostly Cloudy,120,2012-12-03 03:35:00
9:55 PM,41.7,40.6,96,30.02,2.5,SE,6.9,-,N/A,,Mostly Cloudy,130,2012-12-03 03:55:00
10:15 PM,41.4,40.5,97,30.02,2.5,ESE,5.8,-,N/A,,Mostly Cloudy,120,2012-12-03 04:15:00
10:35 PM,41.9,41.0,97,30.02,2.5,ESE,5.8,-,N/A,,Overcast,120,2012-12-03 04:35:00
10:55 PM,42.8,41.9,97,30.02,2.5,SE,5.8,-,N/A,,Overcast,130,2012-12-03 04:55:00
11:15 PM,43.7,42.8,97,30.02,2.0,SSE,9.2,-,N/A,,Overcast,150,2012-12-03 05:15:00
11:35 PM,43.7,42.8,97,30.01,0.8,SE,6.9,-,N/A,,Overcast,140,2012-12-03 05:35:00
11:55 PM,43.7,42.8,97,30.01,0.2,SE,8.1,-,N/A,,Overcast,140,2012-12-03 05:55:00